Tracking 30102 objects as of 12-Dec-2024
HD Live streaming from Space Station
objects crossing your sky now

STARLINK-32426

Track STARLINK-32426 now!
10-day predictions
STARLINK-32426 is classified as:


NORAD ID: 61681
Int'l Code: 2024-193W
Perigee: 453.6 km
Apogee: 455.2 km
Inclination: 53.2 °
Period: 93.5 minutes
Semi major axis: 6825 km
RCS: Unknown
Launch date: October 26, 2024
Source: United States (US)
Launch site: AIR FORCE EASTERN TEST RANGE (AFETR)
Your satellite tracking list
Your tracking list is empty




NASA's NSSDC Master Catalog

Two Line Element Set (TLE):
1 61681U 24193W   24346.44406908  .00003322  00000-0  93003-4 0  9994
2 61681  53.1590  39.0612 0001159  73.8016 286.3116 15.39619933  8261
Source of the keplerian elements: AFSPC